Location: Unspecified
(34.4950°S, 58.5160°W)
Time: 07:34:45
(UTC+00:00)

ACS3 Solar Sail - Pass Details

Date: 24 February 2026
Orbit: 882 x 976 km, 97.2° (Epoch: 14 March)

Event Time Altitude Azimuth Distance (km) Brightness Sun altitude
Exits shadow 05:13:56 20° 188° (S) 2,097 3.9 -43.3°
Drops below altitude 10° 05:15:36 10° 189° (S) 2,718 4.6 -43.2°
Sets 05:18:06 0° 189° (S) 3,683 5.4 -43.0°
